| time (UTC) | temp F | wind direction | speed MPH | gust MPH | rain 1hr in | rain 24hr in | rain mn in | humidity % | barometer mb |
| 20260505153053 | 54 | 133 | 1.0 | 3.0 | 0.00 | 0.00 | 0.00 | 87 | 1015.9 |
| 20260505153013 | 55 | 217 | 0.0 | 3.0 | 0.00 | 0.00 | 0.00 | 74 | 1014.1 |
| 20260505151558 | 54 | 111 | 1.0 | 3.0 | 0.00 | 0.00 | 0.00 | 88 | 1015.8 |
| 20260505151514 | 55 | 254 | 0.0 | 0.0 | 0.00 | 0.00 | 0.00 | 75 | 1013.9 |
| 20260505150111 | 54 | 9 | 0.0 | 2.0 | 0.00 | 0.00 | 0.00 | 88 | 1015.6 |
| 20260505124559 | 53 | 9 | 1.0 | 3.0 | 0.00 | 0.00 | 0.00 | 87 | 1015.0 |
| 20260505124503 | 55 | 317 | 0.0 | 0.0 | 0.00 | 0.00 | 0.00 | 74 | 1013.5 |
| 20260505123102 | 53 | 30 | 2.0 | 3.0 | 0.00 | 0.00 | 0.00 | 87 | 1015.0 |
| 20260505123002 | 55 | 318 | 0.0 | 1.0 | 0.00 | 0.00 | 0.00 | 75 | 1013.5 |
| 20260505121630 | 53 | 22 | 2.0 | 3.0 | 0.00 | 0.00 | 0.00 | 87 | 1015.1 |
| 20260505121600 | 55 | 317 | 0.0 | 1.0 | 0.00 | 0.00 | 0.00 | 74 | 1013.4 |
| 20260505120057 | 53 | 323 | 1.0 | 3.0 | 0.00 | 0.00 | 0.00 | 86 | 1015.1 |
| 20260505114602 | 55 | 317 | 0.0 | 1.0 | 0.00 | 0.00 | 0.00 | 73 | 1013.6 |
| 20260505114557 | 53 | 334 | 0.0 | 2.0 | 0.00 | 0.00 | 0.00 | 86 | 1015.0 |
| 20260505113105 | 53 | 309 | 2.0 | 3.0 | 0.00 | 0.00 | 0.00 | 86 | 1015.2 |
| 20260505113102 | 55 | 49 | 0.0 | 0.0 | 0.00 | 0.00 | 0.00 | 73 | 1013.6 |
| 20260505111559 | 55 | 49 | 0.0 | 0.0 | 0.00 | 0.00 | 0.00 | 72 | 1013.6 |
| 20260505110105 | 55 | 84 | 0.0 | 0.0 | 0.00 | 0.00 | 0.00 | 72 | 1013.6 |
| 20260505101600 | 53 | 9 | 2.0 | 3.0 | 0.00 | 0.00 | 0.00 | 86 | 1015.0 |
| 20260505101557 | 55 | 360 | 0.0 | 1.0 | 0.00 | 0.00 | 0.00 | 69 | 1013.7 |
| 20260505100136 | 53 | 9 | 1.0 | 3.0 | 0.00 | 0.00 | 0.00 | 85 | 1015.1 |
| 20260505100055 | 55 | 338 | 0.0 | 3.0 | 0.00 | 0.00 | 0.00 | 68 | 1013.8 |
| 20260505094556 | 55 | 285 | 1.0 | 3.0 | 0.00 | 0.00 | 0.00 | 68 | 1013.8 |
| 20260505093056 | 54 | 286 | 1.0 | 3.0 | 0.00 | 0.00 | 0.00 | 85 | 1015.2 |
| 20260505093050 | 55 | 355 | 0.0 | 2.0 | 0.00 | 0.00 | 0.00 | 69 | 1014.0 |
| 20260505091616 | 54 | 309 | 2.0 | 3.0 | 0.00 | 0.00 | 0.00 | 85 | 1015.5 |
| 20260505091556 | 56 | 292 | 0.0 | 1.0 | 0.00 | 0.00 | 0.00 | 70 | 1013.9 |
| 20260505090100 | 54 | 9 | 2.0 | 7.0 | 0.00 | 0.00 | 0.00 | 86 | 1015.6 |
| 20260505090056 | 56 | 128 | 0.0 | 0.0 | 0.00 | 0.00 | 0.00 | 71 | 1014.1 |
| 20260505084553 | 54 | 284 | 2.0 | 4.0 | 0.00 | 0.00 | 0.00 | 86 | 1015.6 |
| 20260505084550 | 56 | 76 | 0.0 | 3.0 | 0.00 | 0.00 | 0.00 | 71 | 1014.3 |
| 20260505083057 | 54 | 227 | 1.0 | 3.0 | 0.00 | 0.00 | 0.00 | 86 | 1015.6 |
| 20260505083049 | 56 | 32 | 1.0 | 4.0 | 0.00 | 0.00 | 0.00 | 69 | 1014.5 |
| 20260505081557 | 56 | 342 | 0.0 | 2.0 | 0.00 | 0.00 | 0.00 | 70 | 1014.3 |
| 20260505080054 | 53 | 309 | 1.0 | 6.0 | 0.00 | 0.00 | 0.00 | 86 | 1015.8 |
| 20260505080047 | 56 | 16 | 0.0 | 2.0 | 0.00 | 0.00 | 0.00 | 72 | 1014.4 |
| 20260505074602 | 57 | 38 | 0.0 | 2.0 | 0.00 | 0.00 | 0.00 | 74 | 1014.5 |
| 20260505074553 | 53 | 319 | 2.0 | 4.0 | 0.00 | 0.00 | 0.00 | 86 | 1015.8 |
| 20260505073100 | 53 | 334 | 2.0 | 8.0 | 0.00 | 0.00 | 0.00 | 86 | 1015.6 |
| 20260505073039 | 57 | 26 | 0.0 | 0.0 | 0.00 | 0.00 | 0.00 | 75 | 1014.4 |
| 20260505071552 | 53 | 346 | 2.0 | 6.0 | 0.00 | 0.00 | 0.00 | 86 | 1015.6 |
| 20260505071537 | 57 | 35 | 0.0 | 2.0 | 0.00 | 0.00 | 0.00 | 76 | 1014.3 |
| 20260505070057 | 53 | 31 | 4.0 | 11.0 | 0.00 | 0.00 | 0.00 | 85 | 1015.6 |
| 20260505070035 | 57 | 35 | 0.0 | 1.0 | 0.00 | 0.00 | 0.00 | 75 | 1014.0 |
| 20260505064602 | 53 | 327 | 4.0 | 9.0 | 0.00 | 0.00 | 0.00 | 85 | 1015.3 |
| 20260505064536 | 57 | 34 | 0.0 | 2.0 | 0.00 | 0.00 | 0.00 | 75 | 1014.1 |
| 20260505063054 | 54 | 338 | 3.0 | 9.0 | 0.00 | 0.00 | 0.00 | 85 | 1015.2 |
| 20260505063040 | 58 | 277 | 0.0 | 2.0 | 0.00 | 0.00 | 0.00 | 75 | 1014.2 |
| 20260505061555 | 54 | 321 | 6.0 | 10.0 | 0.00 | 0.00 | 0.00 | 85 | 1015.4 |
| 20260505061542 | 58 | 346 | 0.0 | 2.0 | 0.00 | 0.00 | 0.00 | 74 | 1013.9 |
| 20260505060059 | 54 | 346 | 5.0 | 9.0 | 0.00 | 0.00 | 0.00 | 84 | 1015.5 |
| 20260505060034 | 58 | 17 | 0.0 | 0.0 | 0.00 | 0.00 | 0.00 | 74 | 1013.9 |
| 20260505054620 | 54 | 329 | 4.0 | 8.0 | 0.00 | 0.00 | 0.00 | 84 | 1015.6 |
| 20260505054536 | 58 | 291 | 0.0 | 1.0 | 0.00 | 0.00 | 0.00 | 74 | 1014.2 |
| 20260505053057 | 54 | 17 | 4.0 | 8.0 | 0.00 | 0.00 | 0.00 | 83 | 1015.7 |
| 20260505053032 | 58 | 310 | 0.0 | 4.0 | 0.00 | 0.00 | 0.00 | 72 | 1014.3 |
| 20260505051555 | 54 | 336 | 4.0 | 8.0 | 0.00 | 0.00 | 0.00 | 83 | 1015.8 |
| 20260505051532 | 58 | 51 | 0.0 | 2.0 | 0.00 | 0.00 | 0.00 | 71 | 1014.5 |
| 20260505041605 | 56 | 336 | 1.0 | 8.0 | 0.00 | 0.00 | 0.00 | 81 | 1015.4 |
| 20260505041527 | 59 | 32 | 1.0 | 5.0 | 0.00 | 0.00 | 0.00 | 70 | 1013.9 |
| 20260505040058 | 56 | 228 | 6.0 | 12.0 | 0.00 | 0.00 | 0.00 | 81 | 1015.2 |
| 20260505040027 | 59 | 40 | 1.0 | 3.0 | 0.00 | 0.00 | 0.00 | 70 | 1013.7 |
| 20260505034601 | 56 | 261 | 4.0 | 11.0 | 0.00 | 0.00 | 0.00 | 81 | 1014.9 |
| 20260505034526 | 60 | 42 | 0.0 | 3.0 | 0.00 | 0.00 | 0.00 | 69 | 1013.4 |
| 20260505033057 | 56 | 221 | 7.0 | 17.0 | 0.00 | 0.00 | 0.00 | 81 | 1014.7 |
| 20260505033035 | 60 | 57 | 0.0 | 3.0 | 0.00 | 0.00 | 0.00 | 67 | 1013.2 |
| 20260505031605 | 56 | 221 | 5.0 | 15.0 | 0.00 | 0.00 | 0.00 | 81 | 1015.0 |
| 20260505031524 | 60 | 43 | 1.0 | 3.0 | 0.00 | 0.00 | 0.00 | 65 | 1013.0 |
| 20260505030103 | 56 | 233 | 10.0 | 19.0 | 0.00 | 0.00 | 0.00 | 81 | 1014.9 |
| 20260505030024 | 61 | 39 | 0.0 | 3.0 | 0.00 | 0.00 | 0.00 | 66 | 1013.2 |
| 20260505024607 | 56 | 187 | 11.0 | 18.0 | 0.00 | 0.00 | 0.00 | 81 | 1015.0 |
| 20260505024548 | 61 | 40 | 1.0 | 3.0 | 0.00 | 0.00 | 0.00 | 65 | 1013.2 |
| 20260505023104 | 56 | 178 | 10.0 | 17.0 | 0.00 | 0.00 | 0.00 | 80 | 1014.8 |
| 20260505023032 | 61 | 50 | 0.0 | 5.0 | 0.00 | 0.00 | 0.00 | 64 | 1013.1 |
| 20260505021558 | 57 | 189 | 10.0 | 21.0 | 0.00 | 0.00 | 0.00 | 80 | 1014.8 |
| 20260505021542 | 62 | 339 | 1.0 | 4.0 | 0.00 | 0.00 | 0.00 | 63 | 1013.0 |
| 20260505020105 | 57 | 175 | 12.0 | 20.0 | 0.00 | 0.00 | 0.00 | 79 | 1014.9 |
| 20260505020022 | 62 | 44 | 2.0 | 6.0 | 0.00 | 0.00 | 0.00 | 61 | 1013.0 |
| 20260505014556 | 57 | 161 | 13.0 | 18.0 | 0.00 | 0.00 | 0.00 | 76 | 1014.8 |
| 20260505014526 | 62 | 42 | 1.0 | 4.0 | 0.00 | 0.00 | 0.00 | 60 | 1013.0 |
| 20260505013056 | 58 | 183 | 9.0 | 18.0 | 0.00 | 0.00 | 0.00 | 76 | 1015.0 |
| 20260505013022 | 63 | 35 | 1.0 | 3.0 | 0.00 | 0.00 | 0.00 | 59 | 1012.9 |
| 20260505011554 | 59 | 207 | 10.0 | 17.0 | 0.00 | 0.00 | 0.00 | 74 | 1015.2 |
| 20260505011527 | 63 | 46 | 1.0 | 4.0 | 0.00 | 0.00 | 0.00 | 60 | 1013.2 |
| 20260505010111 | 59 | 221 | 8.0 | 19.0 | 0.00 | 0.00 | 0.00 | 74 | 1015.2 |
| 20260505010021 | 64 | 38 | 1.0 | 4.0 | 0.00 | 0.00 | 0.00 | 60 | 1013.1 |
| 20260505004600 | 58 | 170 | 13.0 | 20.0 | 0.00 | 0.00 | 0.00 | 75 | 1015.4 |
| 20260505004534 | 65 | 35 | 1.0 | 6.0 | 0.00 | 0.00 | 0.00 | 59 | 1013.4 |
| 20260505003119 | 58 | 183 | 13.0 | 21.0 | 0.00 | 0.00 | 0.00 | 75 | 1015.3 |
| 20260505003020 | 65 | 31 | 1.0 | 6.0 | 0.00 | 0.00 | 0.00 | 58 | 1013.3 |
| 20260505001609 | 58 | 175 | 14.0 | 20.0 | 0.00 | 0.00 | 0.00 | 76 | 1015.4 |
| 20260505001519 | 65 | 28 | 1.0 | 5.0 | 0.00 | 0.00 | 0.00 | 58 | 1013.2 |
| 20260505000020 | 65 | 68 | 1.0 | 5.0 | 0.00 | 0.00 | 0.00 | 57 | 1013.2 |
| 20260504234559 | 58 | 175 | 14.0 | 20.0 | 0.00 | 0.00 | 0.00 | 77 | 1015.3 |
| 20260504234518 | 66 | 40 | 1.0 | 5.0 | 0.00 | 0.00 | 0.00 | 57 | 1013.1 |
| 20260504233102 | 59 | 175 | 13.0 | 21.0 | 0.00 | 0.00 | 0.00 | 76 | 1015.4 |
| 20260504233018 | 65 | 30 | 1.0 | 5.0 | 0.00 | 0.00 | 0.00 | 59 | 1013.1 |
| 20260504231557 | 59 | 205 | 14.0 | 20.0 | 0.00 | 0.00 | 0.00 | 75 | 1015.3 |
| 20260504231516 | 65 | 40 | 2.0 | 4.0 | 0.00 | 0.00 | 0.00 | 58 | 1013.1 |
| 20260504230113 | 59 | 201 | 14.0 | 19.0 | 0.00 | 0.00 | 0.00 | 75 | 1015.4 |
| 20260504230016 | 66 | 46 | 1.0 | 6.0 | 0.00 | 0.00 | 0.00 | 57 | 1013.0 |
| 20260504224612 | 59 | 205 | 14.0 | 20.0 | 0.00 | 0.00 | 0.00 | 77 | 1015.4 |
| 20260504224515 | 68 | 46 | 1.0 | 5.0 | 0.00 | 0.00 | 0.00 | 54 | 1013.0 |
| 20260504223103 | 59 | 184 | 12.0 | 19.0 | 0.00 | 0.00 | 0.00 | 78 | 1015.6 |
| 20260504223015 | 68 | 47 | 1.0 | 8.0 | 0.00 | 0.00 | 0.00 | 54 | 1013.1 |
| 20260504221555 | 59 | 202 | 15.0 | 20.0 | 0.00 | 0.00 | 0.00 | 77 | 1015.7 |
| 20260504221513 | 67 | 293 | 1.0 | 4.0 | 0.00 | 0.00 | 0.00 | 55 | 1013.1 |
| 20260504220059 | 59 | 198 | 12.0 | 18.0 | 0.00 | 0.00 | 0.00 | 74 | 1016.1 |
| 20260504220018 | 66 | 187 | 1.0 | 4.0 | 0.00 | 0.00 | 0.00 | 54 | 1013.2 |
| 20260504214557 | 59 | 198 | 11.0 | 16.0 | 0.00 | 0.00 | 0.00 | 78 | 1016.2 |
| 20260504214513 | 66 | 186 | 0.0 | 4.0 | 0.00 | 0.00 | 0.00 | 54 | 1013.4 |
| 20260504213103 | 60 | 175 | 10.0 | 16.0 | 0.00 | 0.00 | 0.00 | 78 | 1016.0 |
| 20260504213012 | 67 | 279 | 0.0 | 8.0 | 0.00 | 0.00 | 0.00 | 54 | 1013.5 |
| 20260504211559 | 59 | 183 | 11.0 | 16.0 | 0.00 | 0.00 | 0.00 | 78 | 1016.2 |
| 20260504211510 | 67 | 5 | 1.0 | 7.0 | 0.00 | 0.00 | 0.00 | 54 | 1013.3 |
| 20260504210104 | 59 | 194 | 10.0 | 15.0 | 0.00 | 0.00 | 0.00 | 77 | 1016.5 |
| 20260504210010 | 69 | 240 | 0.0 | 3.0 | 0.00 | 0.00 | 0.00 | 51 | 1013.5 |
| 20260504204602 | 60 | 202 | 11.0 | 15.0 | 0.00 | 0.00 | 0.00 | 75 | 1016.1 |
| 20260504204514 | 67 | 56 | 1.0 | 4.0 | 0.00 | 0.00 | 0.00 | 54 | 1013.7 |
| 20260504203056 | 60 | 182 | 9.0 | 14.0 | 0.00 | 0.00 | 0.00 | 77 | 1016.1 |
| 20260504203008 | 67 | 191 | 2.0 | 8.0 | 0.00 | 0.00 | 0.00 | 53 | 1013.6 |
| 20260504201612 | 67 | 174 | 2.0 | 7.0 | 0.00 | 0.00 | 0.00 | 51 | 1013.6 |
| 20260504201559 | 59 | 185 | 9.0 | 15.0 | 0.00 | 0.00 | 0.00 | 78 | 1016.2 |
| 20260504200104 | 58 | 184 | 9.0 | 14.0 | 0.00 | 0.00 | 0.00 | 79 | 1016.4 |
| 20260504200005 | 66 | 232 | 2.0 | 7.0 | 0.00 | 0.00 | 0.00 | 52 | 1013.7 |
| 20260504194556 | 59 | 207 | 9.0 | 12.0 | 0.00 | 0.00 | 0.00 | 80 | 1016.4 |
| 20260504194506 | 67 | 104 | 0.0 | 4.0 | 0.00 | 0.00 | 0.00 | 52 | 1013.8 |
| 20260504193056 | 58 | 198 | 10.0 | 15.0 | 0.00 | 0.00 | 0.00 | 79 | 1016.5 |
| 20260504193001 | 65 | 165 | 1.0 | 6.0 | 0.00 | 0.00 | 0.00 | 53 | 1013.7 |
| 20260504191608 | 59 | 198 | 9.0 | 14.0 | 0.00 | 0.00 | 0.00 | 77 | 1016.6 |
| 20260504191559 | 65 | 207 | 0.0 | 5.0 | 0.00 | 0.00 | 0.00 | 53 | 1013.9 |
| 20260504190058 | 64 | 196 | 0.0 | 2.0 | 0.00 | 0.00 | 0.00 | 54 | 1014.0 |
| 20260504190055 | 59 | 198 | 8.0 | 12.0 | 0.00 | 0.00 | 0.00 | 77 | 1016.4 |
| 20260504184600 | 63 | 40 | 0.0 | 6.0 | 0.00 | 0.00 | 0.00 | 54 | 1013.9 |
| 20260504184555 | 60 | 203 | 6.0 | 10.0 | 0.00 | 0.00 | 0.00 | 75 | 1016.4 |
| 20260504183101 | 64 | 42 | 1.0 | 4.0 | 0.00 | 0.00 | 0.00 | 54 | 1013.9 |
| 20260504183054 | 60 | 153 | 5.0 | 12.0 | 0.00 | 0.00 | 0.00 | 75 | 1016.4 |
| 20260504181556 | 59 | 171 | 6.0 | 12.0 | 0.00 | 0.00 | 0.00 | 77 | 1016.3 |
| 20260504180058 | 58 | 175 | 7.0 | 12.0 | 0.00 | 0.00 | 0.00 | 77 | 1016.5 |
| 20260504180054 | 64 | 22 | 0.0 | 3.0 | 0.00 | 0.00 | 0.00 | 53 | 1014.0 |
| 20260504174559 | 58 | 165 | 8.0 | 11.0 | 0.00 | 0.00 | 0.00 | 78 | 1016.1 |
| 20260504174553 | 63 | 165 | 0.0 | 4.0 | 0.00 | 0.00 | 0.00 | 58 | 1013.7 |
| 20260504173101 | 58 | 150 | 6.0 | 11.0 | 0.00 | 0.00 | 0.00 | 78 | 1016.0 |
| 20260504173053 | 63 | 174 | 0.0 | 3.0 | 0.00 | 0.00 | 0.00 | 57 | 1013.6 |
| 20260504171555 | 59 | 175 | 6.0 | 11.0 | 0.00 | 0.00 | 0.00 | 78 | 1015.8 |
| 20260504171550 | 63 | 47 | 0.0 | 2.0 | 0.00 | 0.00 | 0.00 | 58 | 1013.7 |
| 20260504160104 | 54 | 171 | 2.0 | 6.0 | 0.00 | 0.00 | 0.00 | 82 | 1016.0 |